Waarnemingen

Advertentie
Mijn weer
Mont-De-Marsan, Frankrijk (7607): temperatuur & dauwpunt: 13.10.2018 11:00:00 - 19.10.2018 11:00:00 (CEST)Mont-De-Marsan, Frankrijk (7607): temperatuur 5cm: 13.10.2018 11:00:00 - 19.10.2018 11:00:00 (CEST)Mont-De-Marsan, Frankrijk (7607): temperatuur -20cm & temperatuur -100cm: 13.10.2018 11:00:00 - 19.10.2018 11:00:00 (CEST)Mont-De-Marsan, Frankrijk (7607): windsnelheid & windstoten: 13.10.2018 11:00:00 - 19.10.2018 11:00:00 (CEST)Mont-De-Marsan, Frankrijk (7607): windrichting: 13.10.2018 11:00:00 - 19.10.2018 11:00:00 (CEST)Mont-De-Marsan, Frankrijk (7607): luchtdruk: 13.10.2018 11:00:00 - 19.10.2018 11:00:00 (CEST)Mont-De-Marsan, Frankrijk (7607): zicht: 13.10.2018 11:00:00 - 19.10.2018 11:00:00 (CEST)Mont-De-Marsan, Frankrijk (7607): Zonneschijnduur: 13.10.2018 11:00:00 - 19.10.2018 11:00:00 (CEST)Mont-De-Marsan, Frankrijk (7607): neerslag: 13.10.2018 11:00:00 - 19.10.2018 11:00:00 (CEST)
Datum & Tijd tt [°C] td [°C] tt 5cm [°C] tt -20cm [°C] tt -100cm [°C] ff [km/u] ff [kn] fx [km/u] fx [kn] dd ppp [hPa] vv [km] sd [min] rr [mm]
19.10.2018 11:00:00 13,3 13,3 12,8 16,6 18,3 3 1 6 3 Z 1019,2 0,3 0 0,0
19.10.2018 10:00:00 11,9 11,7 12,0 16,7 18,3 2 1 9 5 NNO 1018,9 0,2 0 0,0
19.10.2018 09:00:00 11,4 11,4 10,7 16,8 18,3 3 1 6 4 Z 1017,9 0,3 0 0,0
19.10.2018 08:00:00 10,9 10,7 9,2 16,9 18,3 5 3 8 4 ZZO 1017,3 0,2 0 0,0
19.10.2018 07:00:00 11,0 10,8 9,9 17,0 18,4 0 0 4 2 N 1017,3 0,1 0 0,0
19.10.2018 06:00:00 11,3 11,1 10,4 17,1 18,3 0 0 4 2 N 1017,5 0,2 0 0,0
19.10.2018 05:00:00 11,8 11,6 10,2 17,2 18,4 3 2 6 3 NNW 1017,4 0,1 0 0,0
19.10.2018 04:00:00 11,3 11,0 9,8 17,3 18,4 0 0 4 2 N 1017,1 0,6 0 0,2
19.10.2018 03:00:00 12,0 11,8 9,2 17,4 18,4 3 2 6 4 OZO 1017,0 0,2 0 0,0
19.10.2018 02:00:00 12,3 12,0 9,5 17,5 18,4 0 0 4 2 N 1016,7 0,8 0 0,0
19.10.2018 01:00:00 12,6 12,3 10,6 17,6 18,4 0 0 3 2 N 1017,0 0,4 0 0,0
19.10.2018 00:00:00 13,1 12,6 10,5 17,7 18,4 2 1 4 2 NO 1017,0 4,0 0 0,0
18.10.2018 23:00:00 13,9 13,4 10,5 17,8 18,4 0 0 3 2 N 1016,9 0,6 0 0,0
18.10.2018 22:00:00 15,0 14,5 11,6 17,8 18,4 0 0 2 1 N 1016,5 9 0 0,0
18.10.2018 21:00:00 15,4 14,6 11,7 17,8 18,4 0 0 5 3 N 1016,2 7 0 0,0
18.10.2018 20:00:00 16,4 15,1 13,8 17,7 18,4 5 3 6 3 N 1016,0 11 0 0,0
18.10.2018 19:00:00 18,9 15,6 17,6 17,5 18,4 0 0 12 6 N 1015,2 27 28 0,0
18.10.2018 18:00:00 20,3 15,5 22,4 17,3 18,4 9 5 14 7 NO 1015,1 32 49 -
18.10.2018 17:00:00 20,2 15,2 22,3 17,1 18,4 9 5 14 8 NNO 1015,0 35 16 0,0
18.10.2018 16:00:00 20,6 15,2 24,7 16,9 18,4 5 3 11 6 NNO 1015,0 27 55 0,0
18.10.2018 15:00:00 19,7 15,6 20,3 16,7 18,4 2 1 11 6 O 1015,3 20 12 0,0
18.10.2018 14:00:00 18,1 15,2 19,5 16,6 18,4 4 2 9 5 ZO 1015,8 20 1 0,0
18.10.2018 13:00:00 16,9 15,6 18,0 16,6 18,5 4 2 7 4 NNO 1016,0 15 0 0,0
18.10.2018 12:00:00 15,5 15,3 14,7 16,6 18,4 5 3 10 5 NO 1016,5 11 0 0,0
18.10.2018 11:00:00 13,5 13,3 12,5 16,6 18,4 4 2 6 4 ONO 1016,6 8 0 0,0
18.10.2018 10:00:00 11,9 11,7 11,1 16,7 18,5 3 1 5 3 NNO 1016,3 1,4 0 0,0
18.10.2018 09:00:00 10,8 10,6 9,1 16,8 18,5 2 1 3 2 O 1015,9 0,8 0 0,0
18.10.2018 08:00:00 10,0 9,7 8,3 16,9 18,4 4 2 5 3 ONO 1015,6 0,2 0 0,0
18.10.2018 07:00:00 10,7 10,4 7,6 17,1 18,5 0 0 5 3 N 1015,1 0,3 0 0,0
18.10.2018 06:00:00 11,4 11,1 8,3 17,1 18,4 0 0 3 2 N 1015,0 0,8 0 0,0
18.10.2018 05:00:00 12,0 11,7 8,9 17,3 18,5 0 0 5 3 N 1015,0 15 0 0,0
18.10.2018 04:00:00 11,8 11,5 9,5 17,4 18,5 0 0 6 4 N 1015,1 10 0 0,0
18.10.2018 03:00:00 12,0 11,5 10,1 17,5 18,5 3 1 4 2 WNW 1015,5 12 0 0,0
18.10.2018 02:00:00 13,0 12,8 10,3 17,6 18,5 0 0 5 3 N 1015,7 15 0 0,0
18.10.2018 01:00:00 12,0 11,7 9,3 17,7 18,5 3 2 8 4 N 1015,9 8 0 0,0
18.10.2018 00:00:00 12,5 12,0 10,2 17,9 18,5 4 2 8 4 NO 1015,7 9 0 0,0
17.10.2018 23:00:00 13,3 12,8 11,5 17,9 18,5 7 4 11 6 NO 1015,9 15 0 0,0
17.10.2018 22:00:00 13,6 13,0 11,3 18,0 18,6 8 5 12 6 NO 1015,7 19 0 0,0
17.10.2018 21:00:00 14,1 13,1 12,0 18,0 18,5 4 2 9 5 ONO 1015,6 16 0 0,0
17.10.2018 20:00:00 15,2 13,6 11,6 17,9 18,6 0 0 6 3 N 1015,4 34 0 0,0
17.10.2018 19:00:00 18,1 14,0 17,2 17,8 18,6 6 3 10 6 NO 1014,8 52 0 0,0
17.10.2018 18:00:00 19,5 13,2 20,1 17,7 18,6 6 3 10 6 O 1014,8 55 33 0,0
17.10.2018 17:00:00 19,1 13,7 20,7 17,5 18,6 5 3 20 11 ONO 1015,2 44 26 0,0
17.10.2018 16:00:00 18,6 15,1 19,0 17,4 18,6 10 5 18 10 O 1015,5 31 29 0,0
17.10.2018 15:00:00 16,5 14,3 18,0 17,3 18,6 9 5 13 7 ONO 1016,3 24 0 0,0
17.10.2018 14:00:00 15,6 14,0 16,9 17,2 18,6 3 2 8 5 ONO 1017,1 21 0 0,0
17.10.2018 13:00:00 15,2 14,1 16,9 17,1 18,6 6 3 12 6 O 1017,8 7 0 0,0
17.10.2018 12:00:00 14,5 14,0 15,6 17,1 18,6 3 2 8 4 ZZO 1018,3 6 0 0,0
17.10.2018 11:00:00 13,5 13,2 13,5 17,2 18,6 0 0 4 2 N 1018,6 0,2 0 0,0
17.10.2018 10:00:00 12,8 12,5 13,0 17,2 18,6 3 2 6 3 ZZW 1018,7 1,1 0 0,0
17.10.2018 09:00:00 12,8 12,5 12,7 17,3 18,6 3 2 6 4 Z 1018,8 3,2 0 0,0
17.10.2018 08:00:00 12,7 12,4 12,6 17,3 18,6 2 1 6 3 WNW 1018,6 0,8 0 0,0
17.10.2018 07:00:00 12,6 12,3 12,5 17,4 18,6 0 0 4 2 N 1018,6 0,3 0 0,0
17.10.2018 06:00:00 12,7 12,1 12,2 17,5 18,6 4 2 6 4 W 1018,7 15 0 0,0
17.10.2018 05:00:00 12,2 11,9 9,6 17,7 18,6 4 2 6 3 W 1018,6 31 0 0,0
17.10.2018 04:00:00 11,3 10,8 8,7 17,8 18,6 4 2 5 3 W 1018,8 30 0 0,0
17.10.2018 03:00:00 12,0 11,4 9,4 17,9 18,6 2 1 9 5 WNW 1019,0 13 0 0,0
17.10.2018 02:00:00 13,0 12,1 11,3 18,0 18,6 8 4 9 5 W 1019,3 31 0 0,0
17.10.2018 01:00:00 14,3 13,0 13,8 18,1 18,7 5 3 9 5 W 1019,6 43 0 0,0
17.10.2018 00:00:00 14,6 13,1 12,9 18,1 18,7 0 0 11 6 N 1019,8 48 0 0,0
16.10.2018 23:00:00 14,4 13,4 13,0 18,2 18,7 6 4 12 6 WNW 1019,9 33 0 0,0
16.10.2018 22:00:00 15,6 14,6 13,5 18,1 18,7 9 5 11 6 W 1019,6 17 0 0,0
16.10.2018 21:00:00 17,1 14,7 15,4 18,1 18,7 2 1 8 4 W 1019,1 20 0 0,0
16.10.2018 20:00:00 17,8 15,4 16,3 18,0 18,7 0 0 8 4 N 1018,7 50 0 0,0
16.10.2018 19:00:00 18,9 15,4 18,5 17,8 18,7 3 2 5 3 NNO 1018,3 20 13 0,0
16.10.2018 18:00:00 19,8 13,5 20,9 17,6 18,7 4 2 10 5 NO 1017,7 60 11 0,0
16.10.2018 17:00:00 20,1 14,2 21,4 17,3 18,7 4 2 13 7 N 1017,7 60 2 0,0
16.10.2018 16:00:00 20,4 14,1 21,8 16,9 18,7 10 5 15 8 NNW 1017,6 60 35 0,0
16.10.2018 15:00:00 20,8 14,2 25,8 16,6 18,7 5 3 10 6 ZO 1017,6 60 58 0,0
16.10.2018 14:00:00 19,2 14,0 25,3 16,4 18,7 4 2 13 7 O 1017,6 57 60 0,0
16.10.2018 13:00:00 16,6 14,1 20,2 16,3 18,7 6 3 10 5 NO 1017,9 23 60 0,0
16.10.2018 12:00:00 13,8 13,5 14,7 16,3 18,7 3 2 7 4 ONO 1017,8 4,7 17 0,0
16.10.2018 11:00:00 11,8 11,6 12,6 16,4 18,8 4 2 8 4 ONO 1017,7 0,3 26 0,0
16.10.2018 10:00:00 10,2 10,0 8,6 16,5 18,8 3 1 8 4 ONO 1017,2 5 39 0,0
16.10.2018 09:00:00 8,4 8,3 7,9 16,6 18,8 4 2 6 3 O 1016,7 1,7 0 0,0
16.10.2018 08:00:00 8,6 8,5 7,0 16,8 18,8 2 1 3 2 NNO 1015,8 0,8 0 0,0
16.10.2018 07:00:00 7,9 7,8 4,9 17,0 18,8 3 2 9 5 N 1015,3 0,3 0 0,0
16.10.2018 06:00:00 7,7 7,4 4,8 17,1 18,8 0 0 3 2 N 1014,9 7 0 0,0
16.10.2018 05:00:00 7,8 7,5 5,4 17,3 18,8 0 0 4 2 N 1014,2 12 0 0,0
16.10.2018 04:00:00 8,4 8,1 6,5 17,5 18,8 2 1 4 2 O 1013,9 8 0 0,0
16.10.2018 03:00:00 9,1 8,8 6,9 17,7 18,8 2 1 8 4 O 1013,8 20 0 0,0
16.10.2018 02:00:00 8,9 8,6 6,9 17,8 18,8 4 2 7 4 NO 1013,5 48 0 0,0
16.10.2018 01:00:00 9,7 9,4 7,5 18,0 18,8 3 1 6 3 NO 1013,3 49 0 0,0
16.10.2018 00:00:00 10,9 10,6 7,6 18,1 18,8 2 1 5 3 ONO 1013,1 13 0 0,0
15.10.2018 23:00:00 11,3 10,8 8,5 18,3 18,8 4 2 8 4 ONO 1012,8 42 0 0,0
15.10.2018 22:00:00 11,9 11,4 9,8 18,3 18,8 3 2 9 5 NO 1011,8 37 0 0,0
15.10.2018 21:00:00 13,0 12,1 10,0 18,4 18,8 3 1 6 3 ONO 1011,0 52 0 0,0
15.10.2018 20:00:00 14,1 12,7 11,7 18,3 18,8 3 2 10 5 ONO 1010,7 60 0 0,0
15.10.2018 19:00:00 17,1 13,2 17,6 18,2 18,8 6 3 10 5 OZO 1010,0 60 52 0,0
15.10.2018 18:00:00 17,8 12,9 19,7 18,1 18,8 5 3 8 4 O 1009,5 60 42 0,0
15.10.2018 17:00:00 17,5 12,6 19,4 18,0 18,8 2 1 12 7 OZO 1009,2 60 29 0,0
15.10.2018 16:00:00 17,0 13,9 15,6 18,0 18,8 9 5 12 7 NO 1008,7 54 17 0,0
15.10.2018 15:00:00 14,9 13,4 15,0 17,9 18,8 6 3 11 6 N 1009,2 52 0 0,0
15.10.2018 14:00:00 14,6 13,5 14,5 17,9 18,8 6 4 9 5 NNW 1009,0 37 0 0,2
15.10.2018 13:00:00 15,0 13,9 14,9 17,8 18,8 6 3 8 4 NNW 1008,9 12 0 0,0
15.10.2018 12:00:00 16,0 12,9 15,7 17,8 18,8 0 0 7 4 N 1008,6 59 14 0,0
15.10.2018 11:00:00 14,3 13,2 14,1 17,8 18,8 0 0 9 5 N 1008,8 59 0 0,2
15.10.2018 10:00:00 13,8 13,5 13,6 17,9 18,8 6 3 8 5 W 1008,7 20 0 0,2
15.10.2018 09:00:00 13,5 13,2 13,0 18,0 18,8 4 2 8 4 W 1008,2 15 0 0,6
15.10.2018 08:00:00 13,3 13,0 12,9 18,1 18,8 4 2 7 4 W 1007,8 13 0 0,8
15.10.2018 07:00:00 13,4 13,1 13,1 18,1 18,8 5 3 8 4 W 1007,8 11 0 0,6
15.10.2018 06:00:00 13,6 13,4 13,3 18,2 18,8 5 3 11 6 NW 1007,8 6 0 0,7
15.10.2018 05:00:00 13,6 13,3 13,4 18,3 18,8 10 5 12 7 W 1008,0 9 0 1,2
15.10.2018 04:00:00 13,7 13,4 13,6 18,4 18,8 6 4 8 4 W 1008,6 10 0 2,2
15.10.2018 03:00:00 14,1 13,8 13,9 18,5 18,8 5 3 8 4 W 1009,2 7 0 1,2
15.10.2018 02:00:00 14,3 14,0 14,1 18,6 18,8 6 4 10 5 W 1009,3 8 0 0,8
15.10.2018 01:00:00 14,4 13,9 14,2 18,7 18,8 5 3 9 5 WZW 1009,7 11 0 0,4
15.10.2018 00:00:00 14,4 13,9 14,1 18,8 18,8 5 3 10 5 ZW 1009,7 17 0 0,0
14.10.2018 23:00:00 14,4 13,9 14,1 18,9 18,8 8 4 25 13 WZW 1009,9 58 0 0,0
14.10.2018 22:00:00 14,3 13,8 14,0 19,0 18,8 11 6 21 11 WZW 1009,3 18 0 0,0
14.10.2018 21:00:00 14,3 13,8 13,9 19,1 18,7 11 6 28 15 WZW 1009,3 14 0 1,0
14.10.2018 20:00:00 14,3 13,8 13,9 19,3 18,7 16 8 33 18 ZW 1009,1 2,4 0 1,0
14.10.2018 19:00:00 14,5 13,9 14,1 19,3 18,7 22 12 45 25 WZW 1007,7 8 0 2,4
14.10.2018 18:00:00 15,0 14,2 14,6 19,4 18,7 25 14 46 25 W 1006,7 10 0 2,3
14.10.2018 17:00:00 15,4 14,6 15,2 19,4 18,7 18 10 35 19 WZW 1006,6 10 0 2,6
14.10.2018 16:00:00 16,2 15,4 15,9 19,3 18,7 14 8 32 18 WZW 1006,3 3,0 0 2,6
14.10.2018 15:00:00 17,0 15,7 16,4 19,2 18,7 20 11 44 24 WZW 1007,2 8 0 0,0
14.10.2018 14:00:00 20,4 16,8 21,3 19,1 18,7 27 14 37 20 W 1004,9 59 0 0,0
14.10.2018 13:00:00 23,6 16,9 25,8 19,0 18,7 4 2 13 7 ZO 1004,3 20 3 0,0
14.10.2018 12:00:00 24,1 16,9 24,0 19,0 18,7 10 5 25 13 OZO 1003,7 37 38 0,0
14.10.2018 11:00:00 22,0 16,7 21,5 19,1 18,7 10 6 28 15 OZO 1003,4 11 58 0,0
14.10.2018 10:00:00 19,8 16,8 19,3 19,1 18,7 16 8 29 16 OZO 1003,4 7 54 0,0
14.10.2018 09:00:00 18,3 16,5 16,8 19,2 18,7 16 9 27 14 OZO 1003,3 6 28 0,0
14.10.2018 08:00:00 17,7 16,4 16,9 19,3 18,7 11 6 23 12 OZO 1003,6 18 0 0,0
14.10.2018 07:00:00 17,7 16,6 16,8 19,5 18,7 14 8 24 13 OZO 1004,1 16 0 0,0
14.10.2018 06:00:00 17,8 16,7 17,0 19,5 18,7 12 7 22 12 OZO 1004,8 17 0 0,0
14.10.2018 05:00:00 18,2 16,9 17,4 19,6 18,7 13 7 24 13 OZO 1005,2 18 0 0,0
14.10.2018 04:00:00 18,4 17,1 17,5 19,7 18,7 15 8 25 13 OZO 1006,0 20 0 0,0
14.10.2018 03:00:00 18,6 17,1 17,8 19,8 18,7 13 7 24 13 OZO 1006,8 19 0 0,0
14.10.2018 02:00:00 18,7 17,2 18,0 19,9 18,7 13 7 27 14 O 1007,5 19 0 0,0
14.10.2018 01:00:00 19,1 17,4 18,3 20,0 18,6 16 9 26 14 OZO 1008,0 20 0 0,0
14.10.2018 00:00:00 19,2 17,3 18,5 20,1 18,7 13 7 24 13 O 1009,3 20 0 0,0
13.10.2018 23:00:00 19,9 17,5 19,2 20,1 18,6 14 8 23 12 OZO 1010,3 25 0 0,0
13.10.2018 22:00:00 20,8 17,6 19,8 20,1 18,6 10 5 21 11 O 1010,6 30 0 0,0
13.10.2018 21:00:00 21,8 17,6 20,8 20,1 18,6 12 7 23 12 O 1011,0 33 0 0,0
13.10.2018 20:00:00 23,0 17,5 22,0 20,0 18,6 13 7 21 12 O 1011,2 37 0 0,0
13.10.2018 19:00:00 24,4 17,9 23,4 19,9 18,6 11 6 23 12 O 1011,3 44 6 0,0
13.10.2018 18:00:00 26,8 17,8 27,8 19,6 18,6 18 10 28 15 O 1011,5 37 60 0,0
13.10.2018 17:00:00 28,0 18,1 28,1 19,3 18,6 14 8 21 12 O 1011,9 31 39 0,0
13.10.2018 16:00:00 27,5 17,7 30,1 19,1 18,6 14 8 22 12 O 1012,7 46 55 0,0
13.10.2018 15:00:00 27,5 17,7 31,0 18,8 18,6 10 6 20 11 OZO 1013,5 40 60 0,0
13.10.2018 14:00:00 26,9 18,2 29,1 18,7 18,6 16 9 24 13 O 1014,4 32 60 0,0
13.10.2018 13:00:00 25,6 17,8 28,4 18,5 18,6 17 9 24 13 O 1015,3 32 60 0,0
13.10.2018 12:00:00 24,1 18,3 26,5 18,5 18,6 15 8 26 14 OZO 1016,0 32 60 0,0
13.10.2018 11:00:00 22,6 18,2 23,2 18,5 18,6 18 10 31 17 ZO 1016,4 30 60 0,0

tt = temperatuur
td = dauwpunt
tt 5cm = temperatuur 5cm
tt -20cm = temperatuur -20cm
tt -100cm = temperatuur -100cm
ff = windsnelheid
fx = windstoten
dd = windrichting
ppp = luchtdruk
vv = zicht
sd = Zonneschijnduur
rr = neerslag

Weerstations in de omgeving